Weather History for PAWD - April, 2012

Change the Weather History Date:

Wednesday, April 4, 2012

  Actual Average Record
Temperature  
Mean Temperature 30 °F -  
Max Temperature 39 °F 41 °F 52 °F (1958)
Min Temperature 21 °F 29 °F 1 °F (1985)
Degree Days  
Heating Degree Days 35    
Moisture  
Dew Point 25 °F    
Average Humidity 71    
Maximum Humidity 79    
Minimum Humidity 64    
Precipitation  
Precipitation 0.01 in - - ()
Sea Level Pressure  
Sea Level Pressure 29.98 in    
Wind  
Wind Speed 6 mph (SSW)    
Max Wind Speed 16 mph    
Max Gust Speed 21 mph    
Visibility 10 miles    
Events Rain    
Averages and records for this station are not official NWS values.
T = Trace of Precipitation, MM = Missing Value Source: NWS Daily Summary

Daily Weather History Graph

Daily Weather History Graph

Search for Another Location

Airport or City:

Trip Planner

Search our weather history database for the weather conditions in past years. The results will help you decide how hot, cold, wet, or windy it might be!

Date:

Astronomy

Apr. 04, 2012 Rise Set
Actual Time 7:11 AM AKDT 8:50 PM AKDT
Civil Twilight 6:27 AM AKDT 9:34 PM AKDT
Nautical Twilight 5:32 AM AKDT 10:30 PM AKDT
Astronomical Twilight 4:25 AM AKDT 11:38 PM AKDT
Moon 6:37 PM AKDT (4/4) 6:08 AM AKDT (4/4)
Length of Visible Light 15h 07m
Length of Day
13h 39m
Waxing Gibbous, 94% of the Moon is Illuminated
Apr 4
Waxing Gibbous
Apr 6
Full
Apr 13
Last Quarter
Apr 20
New
Apr 29
First Quarter

Hourly Weather History & Observations

Time (AKDT) Temp. Windchill Dew Point Humidity Pressure Visibility Wind Dir Wind Speed Gust Speed Precip Events Conditions
12:53 AM 28.9 °F 22.8 °F 18.0 °F 64% 29.79 in 10.0 mi NNW 5.8 mph - N/A   Clear
1:53 AM 28.9 °F 21.9 °F 18.0 °F 64% 29.81 in 10.0 mi NNW 6.9 mph - N/A   Clear
2:53 AM 28.0 °F 20.8 °F 18.0 °F 66% 29.84 in 10.0 mi North 6.9 mph - N/A   Clear
3:53 AM 27.0 °F - 18.0 °F 69% 29.85 in 10.0 mi Calm Calm - N/A   Clear
4:53 AM 27.0 °F 20.5 °F 18.0 °F 69% 29.85 in 10.0 mi NW 5.8 mph - N/A   Clear
5:53 AM 24.1 °F 19.7 °F 16.0 °F 71% 29.87 in 10.0 mi NNW 3.5 mph - N/A   Clear
6:53 AM 24.1 °F 17.0 °F 17.1 °F 75% 29.89 in 10.0 mi NNW 5.8 mph - N/A   Clear
7:53 AM 21.9 °F 17.2 °F 16.0 °F 78% 29.92 in 10.0 mi North 3.5 mph - N/A   Clear
8:53 AM 26.1 °F 21.9 °F 18.0 °F 71% 29.93 in 10.0 mi North 3.5 mph - N/A   Mostly Cloudy
9:53 AM 30.9 °F - 19.9 °F 64% 29.95 in 10.0 mi Calm Calm - N/A   Mostly Cloudy
10:53 AM 33.1 °F - 23.0 °F 66% 29.96 in 10.0 mi Calm Calm - N/A   Partly Cloudy
11:53 AM 35.1 °F - 25.0 °F 67% 29.98 in 10.0 mi Calm Calm - N/A   Mostly Cloudy
12:53 PM 39.0 °F 32.3 °F 28.9 °F 67% 29.99 in 10.0 mi South 10.4 mph - N/A   Partly Cloudy
1:53 PM 39.0 °F 34.8 °F 28.9 °F 67% 30.01 in 10.0 mi South 5.8 mph - N/A   Overcast
2:53 PM 39.0 °F 31.4 °F 28.9 °F 67% 30.01 in 10.0 mi South 12.7 mph - N/A   Overcast
3:53 PM 39.0 °F 30.6 °F 30.0 °F 70% 30.03 in 10.0 mi South 15.0 mph 20.7 mph N/A   Overcast
4:33 PM 39.2 °F 34.2 °F 30.2 °F 70% 30.04 in 10.0 mi South 6.9 mph - 0.00 in Rain Light Rain
4:53 PM 39.0 °F 32.8 °F 30.0 °F 70% 30.04 in 10.0 mi South 9.2 mph - 0.00 in Rain Light Rain
5:53 PM 37.0 °F 29.8 °F 30.9 °F 79% 30.05 in 9.0 mi South 10.4 mph 18.4 mph 0.01 in Rain Light Rain
6:22 PM 37.4 °F 31.4 °F 30.2 °F 75% 30.05 in 10.0 mi South 8.1 mph - 0.00 in   Overcast
6:33 PM 37.4 °F 30.8 °F 30.2 °F 75% 30.05 in 10.0 mi South 9.2 mph 17.3 mph 0.00 in   Overcast
6:53 PM 37.9 °F 30.9 °F 30.9 °F 76% 30.06 in 10.0 mi South 10.4 mph - 0.00 in   Overcast
7:53 PM 37.9 °F 28.9 °F 30.0 °F 73% 30.07 in 10.0 mi SSW 16.1 mph - 0.00 in Rain Light Rain
8:53 PM 37.9 °F 28.9 °F 30.9 °F 76% 30.07 in 10.0 mi South 16.1 mph - 0.00 in   Overcast
9:53 PM 37.9 °F 30.5 °F 30.0 °F 73% 30.08 in 10.0 mi South 11.5 mph 20.7 mph 0.00 in   Overcast
10:53 PM 37.9 °F 32.7 °F 30.0 °F 73% 30.09 in 10.0 mi South 6.9 mph 18.4 mph 0.00 in Rain Light Rain
11:53 PM 37.9 °F 32.1 °F 30.0 °F 73% 30.07 in 10.0 mi South 8.1 mph - 0.00 in Rain Light Rain